Easton, MD

5:05 PM EDT on March 25, 2017 (GMT -0400)
Easton / Newnam

Weather History for KESN - August, 2014

Change the Weather History Date:

Tuesday, August 5, 2014

  Actual Average Record
Temperature  
Mean Temperature 76 °F -  
Max Temperature 86 °F 84 °F 94 °F (1963)
Min Temperature 67 °F 65 °F 51 °F (1951)
Cooling Degree Days 12    
Growing Degree Days 26 (Base 50)    
Moisture  
Dew Point 69 °F    
Average Humidity 89    
Maximum Humidity 100    
Minimum Humidity 51    
Precipitation  
Precipitation 0.00 in - - ()
Sea Level Pressure  
Sea Level Pressure 30.06 in    
Wind  
Wind Speed 0 mph (NNW)    
Max Wind Speed 5 mph    
Max Gust Speed -    
Visibility 8 miles    
Events      
Averages and records for this station are not official NWS values.
T = Trace of Precipitation, MM = Missing Value Source: NWS Daily Summary

Daily Weather History Graph

Daily Weather History Graph

Search for Another Location

Airport or City:

Trip Planner

Search our weather history database for the weather conditions in past years. The results will help you decide how hot, cold, wet, or windy it might be!

Date:

Astronomy

Aug. 05, 2014 Rise Set
Actual Time 6:09 AM EDT 8:10 PM EDT
Civil Twilight 5:39 AM EDT 8:40 PM EDT
Nautical Twilight 5:03 AM EDT 9:15 PM EDT
Astronomical Twilight 4:25 AM EDT 9:54 PM EDT
Moon 3:23 PM EDT (8/5) 12:55 AM EDT (8/5)
Length of Visible Light 15h 00m
Length of Day
14h 01m
Waxing Gibbous, 67% of the Moon is Illuminated
Aug 5
Waxing Gibbous
Aug 10
Full
Aug 17
Last Quarter
Aug 25
New
Sep 2
First Quarter

Hourly Weather History & Observations

Time (EDT) Temp. Heat Index Dew Point Humidity Pressure Visibility Wind Dir Wind Speed Gust Speed Precip Events Conditions
12:02 AM 70.7 °F - 70.7 °F 100% 30.11 in 7.0 mi Calm Calm - N/A   Clear
12:22 AM 70.0 °F - 70.0 °F 100% 30.11 in 7.0 mi Calm Calm - N/A   Clear
12:42 AM 69.4 °F - 69.4 °F 100% 30.11 in 7.0 mi Calm Calm - N/A   Clear
1:02 AM 69.1 °F - 69.1 °F 100% 30.11 in 7.0 mi Calm Calm - N/A   Clear
1:22 AM 69.1 °F - 69.1 °F 100% 30.10 in 7.0 mi Calm Calm - N/A   Clear
1:42 AM 68.9 °F - 68.9 °F 100% 30.09 in 7.0 mi Calm Calm - N/A   Scattered Clouds
2:02 AM 68.0 °F - 68.0 °F 100% 30.09 in 7.0 mi Calm Calm - N/A   Clear
2:22 AM 68.5 °F - 68.5 °F 100% 30.09 in 7.0 mi Calm Calm - N/A   Scattered Clouds
2:42 AM 68.9 °F - 68.9 °F 100% 30.09 in 7.0 mi Calm Calm - N/A   Scattered Clouds
3:02 AM 68.4 °F - 68.4 °F 100% 30.08 in 5.0 mi Calm Calm - N/A   Clear
3:22 AM 68.0 °F - 68.0 °F 100% 30.08 in 7.0 mi Calm Calm - N/A   Clear
3:42 AM 68.0 °F - 68.0 °F 100% 30.08 in 7.0 mi Calm Calm - N/A   Clear
4:02 AM 67.5 °F - 67.5 °F 100% 30.08 in 7.0 mi Calm Calm - N/A   Clear
4:22 AM 68.0 °F - 68.0 °F 100% 30.08 in 5.0 mi Calm Calm - N/A   Clear
4:42 AM 67.3 °F - 67.3 °F 100% 30.08 in 7.0 mi Calm Calm - N/A   Clear
5:03 AM 68.0 °F - 68.0 °F 100% 30.08 in 10.0 mi Calm Calm - N/A   Scattered Clouds
5:23 AM 68.0 °F - 68.0 °F 100% 30.08 in 7.0 mi Calm Calm - N/A   Scattered Clouds
5:43 AM 68.0 °F - 68.0 °F 100% 30.09 in 10.0 mi Calm Calm - N/A   Clear
5:50 AM 68.0 °F - 68.0 °F 100% 30.09 in 7.0 mi Calm Calm - N/A   Haze
6:03 AM 67.8 °F - 67.8 °F 100% 30.08 in 7.0 mi Calm Calm - N/A   Scattered Clouds
6:23 AM 67.3 °F - 67.3 °F 100% 30.09 in 7.0 mi Calm Calm - N/A   Clear
6:25 AM 67.5 °F - 67.5 °F 100% 30.09 in 7.0 mi Calm Calm - N/A   Clear
6:50 AM 68.0 °F - 68.0 °F 100% 30.10 in 7.0 mi Calm Calm - N/A   Haze
7:50 AM 71.6 °F - 71.6 °F 100% 30.10 in 7.0 mi Calm Calm - N/A   Haze
8:50 AM 77.0 °F - 75.2 °F 94% 30.10 in 7.0 mi Calm Calm - N/A   Haze
9:50 AM 80.6 °F 86.2 °F 75.2 °F 84% 30.09 in 10.0 mi Calm Calm - N/A   Clear
10:50 AM 82.4 °F 85.4 °F 68.0 °F 62% 30.09 in 10.0 mi North 3.5 mph - N/A   Partly Cloudy
11:50 AM 84.2 °F 86.6 °F 66.2 °F 55% 30.08 in 10.0 mi Calm Calm - N/A   Partly Cloudy
12:50 PM 84.2 °F 86.6 °F 66.2 °F 55% 30.06 in 10.0 mi Calm Calm - N/A   Scattered Clouds
1:50 PM 84.2 °F 86.6 °F 66.2 °F 55% 30.04 in 10.0 mi Calm Calm - N/A   Scattered Clouds
2:45 PM 84.2 °F 86.6 °F 66.2 °F 55% 30.03 in 10.0 mi North 4.6 mph - N/A   Scattered Clouds
3:45 PM 86.0 °F 88.2 °F 66.2 °F 51% 30.00 in 10.0 mi NNW 4.6 mph - N/A   Scattered Clouds
4:45 PM 86.0 °F 89.4 °F 68.0 °F 55% 29.99 in 10.0 mi NNW 4.6 mph - N/A   Scattered Clouds
6:50 PM 84.2 °F 86.6 °F 66.2 °F 55% 29.98 in 10.0 mi Calm Calm - N/A   Scattered Clouds
7:45 PM 80.6 °F 83.2 °F 68.0 °F 65% 29.99 in 10.0 mi Calm Calm - N/A   Scattered Clouds
8:50 PM 75.2 °F - 68.0 °F 78% 29.98 in 10.0 mi Calm Calm - N/A   Scattered Clouds
10:45 PM 71.6 °F - 71.6 °F 100% 29.99 in 10.0 mi Calm Calm - N/A   Clear
11:05 PM 72.0 °F - 72.0 °F 100% 29.98 in 10.0 mi Calm Calm - N/A   Clear
11:25 PM 72.5 °F - 72.5 °F 100% 29.98 in 10.0 mi Calm Calm - N/A   Clear
11:45 PM 73.4 °F - 73.4 °F 100% 29.98 in 10.0 mi Calm Calm - N/A   Clear